Location: Burgerwiesen
(48.6500°N, 15.6167°E)
Time: 03:42:25
(UTC+00:00)

Abrixas rocket - Pass Details

Date: 09 April 2020
Orbit: 344 x 351 km, 48.4° (Epoch: 06 June)

Event Time Altitude Azimuth Distance (km) Brightness Sun altitude
Rises 18:23:09 0° 279° (W) 2,164 7.9 -7.5°
Reaches altitude 10° 18:25:11 10° 276° (W) 1,323 6.3 -7.8°
Maximum altitude 18:28:06 60° 195° (SSW) 411 2.1 -8.3°
Enters shadow 18:30:40 13° 116° (ESE) 1,176 3.8 -8.7°
